sat.trackr.live / text

‹ back to catalog

STARLINK-36676

NORAD 67912 · 2026-036J

PAYLOAD ACTIVE UNKNOWN

§ Identity

Operator
Country
US
Launch date
2026-02-22
Launch site
AFETR
Launch vehicle
Mass (kg)
RCS (m²)

Purposes: comms

External: N2YO · Heavens-Above · Gunter

§ Orbital elements

Epoch: 2026-09-19T07:22:48.569376Z

Period
94.27 min
Inclination
43.0023°
Eccentricity
0.0001476
Mean motion
15.27578171 rev/d
Perigee alt
482.0 km
Apogee alt
484.1 km
Semi-major
6,861.2 km
B*
2.2034e-4
RAAN
231.7964°
Arg perigee
267.4357°
Mean anomaly
92.6326°
Rev number
3,333

§ Raw data

STARLINK-366761 67912U 26036J   26262.30750659  .00005805  00000+0  22034-3 0  99962 67912  43.0023 231.7964 0001476 267.4357  92.6326 15.27578171 33337

JSON: /api/v1/satellites/67912 · /tle

For live sub-satellite position, see the globe view (requires WebGL).

§ Visibility from observer

Set your observer location to see the next 7 days of passes ≥ 10°. The values pass through the URL so the page stays shareable.

No JS? Fill the form by hand. The geolocation button needs JavaScript.